Location: Newark
(48.1236°N, 0.7169°W)
Time: 03:17:49
(UTC+00:00)

Envisat - Pass Details

Date: 22 November 2019
Orbit: 764 x 766 km, 98.1° (Epoch: 05 December)

Event Time Altitude Azimuth Distance (km) Brightness Sun altitude
Rises 05:47:20 0° 26° (NNE) 3,242 6.4 -15.1°
Reaches altitude 10° 05:50:16 10° 43° (NE) 2,310 5.9 -14.6°
Maximum altitude 05:53:58 20° 90° (E) 1,718 5.8 -14.0°
Drops below altitude 10° 05:57:38 10° 137° (SE) 2,297 6.4 -13.4°
Sets 06:00:32 0° 154° (SSE) 3,218 6.9 -12.9°
